[[{"header":{"parameterUnit":"m.s-1","parameterCategory":2,"la1":30.2991,"la2":30.254,"lo1":-89.0895,"lo2":-89.0444,"dy":0.0017,"dx":0.0017,"nx":28,"ny":28,"refTime":"2024-03-29T09:00:00:Z","depth":"0","parameterNumber":2,"parameterNumberName":"U-component_of_CURRENTS"},"data":[0,0,0,0,0,0,0,0,0,0,0,0,0,0,0,0,0,0,0,0,0,0,0,0,0,0,0,0,0,0,0,0,0,0,0,0,0,0,0,0,0,0,0,0,0,0,0,0,0,0,0,0,0,0,0,0,0,0,0.1206,0.1206,0,0.1229,0.1229,0.1229,0.1228,0.1228,0.1228,0.1228,0.1233,0.1234,0.1234,0,0,0,0,0,0,0,0,0,0,0,0,0,0.1161,0.1161,0.1206,0.1206,0.1206,0.1229,0.1229,0.1229,0.1228,0.1228,0.1228,0.1228,0.1233,0.1234,0.1234,0,0,0,0,0,0,0,0,0,0,0,0,0,0.118,0.1161,0.1206,0.121,0.121,0.1229,0.1229,0.1229,0.1229,0.1228,0.1228,0.1228,0.1233,0.1234,0.1234,0.1243,0,0,0.1236,0.1236,0,0,0,0,0,0,0,0,0.1179,0.1182,0.1209,0.121,0.121,0.1227,0.1215,0.1234,0.1229,0.122,0.1228,0.1227,0.1231,0.1231,0.1235,0.1243,0.1244,0.1236,0.1236,0.1236,0.1236,0,0,0,0,0,0,0,0.1178,0.1181,0.1213,0.1209,0.121,0.1211,0.1213,0.1219,0.1225,0.1221,0.1221,0.1226,0.1231,0.1234,0.1235,0.1244,0.1236,0.1236,0.1236,0.1237,0.1293,0.1294,0,0,0,0,0,0,0.1178,0.118,0.1213,0.1214,0.1195,0.1212,0.1214,0.1221,0.1226,0.1227,0.1226,0.1226,0.1233,0.1234,0.1235,0.127,0.1236,0.1237,0.1237,0.1291,0.1293,0.1294,0,0,0,0,0,0,0.1177,0.1181,0.1212,0.1198,0.1203,0.1213,0.122,0.1221,0.123,0.123,0.1231,0.1234,0.1233,0.1234,0.1253,0.1269,0.1237,0.1237,0.129,0.1292,0.1293,0.1324,0,0,0,0,0,0,0.1176,0.118,0.1187,0.1199,0.1203,0.1233,0.1221,0.1222,0.1233,0.1233,0.1237,0.1237,0.1233,0.1252,0.1253,0.1269,0.1238,0.1288,0.1291,0.1293,0.1322,0.1327,0.1331,0,0,0,0,0,0.1174,0.1188,0.1187,0.1191,0.1211,0.1234,0.1237,0.1242,0.1234,0.1246,0.1249,0.1237,0.1267,0.1253,0.1254,0.1271,0.1287,0.129,0.1293,0.132,0.1326,0.1331,0,0,0,0,0,0,0.1178,0.119,0.1189,0.1207,0.1223,0.1235,0.1247,0.1247,0.1258,0.1257,0.1251,0.1252,0.1274,0.1272,0.1257,0.1295,0.1276,0.1279,0.1296,0.1302,0.1307,0.131,0.1238,0,0,0,0,0,0.118,0.1191,0.1205,0.1221,0.1229,0.1237,0.1246,0.1251,0.1261,0.1266,0.1267,0.1273,0.1286,0.1293,0.1302,0.1322,0.1381,0.1335,0.1339,0.1343,0.1349,0.1455,0.1471,0.1303,0.1303,0.1303,0,0,0.1184,0.1195,0.12,0.1222,0.1232,0.1248,0.1242,0.1262,0.1275,0.1265,0.1282,0.1289,0.1296,0.132,0.133,0.1319,0.1431,0.1347,0.135,0.1353,0.146,0.1477,0.1491,0.1305,0.1304,0.1304,0,0,0.12,0.121,0.1222,0.1236,0.1256,0.1263,0.1271,0.1286,0.1292,0.1313,0.1311,0.133,0.1343,0.1356,0.1362,0.14,0.1452,0.1403,0.143,0.1534,0.1549,0.1563,0.1699,0.1725,0.1406,0.1406,0.1406,0,0.1203,0.1221,0.1231,0.1249,0.1262,0.127,0.1288,0.13,0.1319,0.1332,0.1323,0.1365,0.1361,0.1402,0.1411,0.141,0.1496,0.1405,0.1542,0.1557,0.157,0.1707,0.1734,0.1408,0.1408,0.1407,0.1407,0,0.1226,0.1242,0.1254,0.1274,0.1292,0.1312,0.1328,0.1345,0.1351,0.1363,0.1404,0.1413,0.145,0.1442,0.1433,0.1521,0.1563,0.1537,0.1529,0.1589,0.1729,0.1758,0.141,0.141,0.1409,0.1409,0,0,0.1223,0.126,0.1263,0.1276,0.1306,0.1322,0.135,0.138,0.1415,0.1425,0.1489,0.1484,0.1509,0.1519,0.1524,0.1585,0.1754,0.1603,0.1608,0.1743,0.2035,0.2044,0.2077,0.1765,0.1769,0.1772,0.2109,0,0.1234,0.1267,0.1284,0.1316,0.1334,0.1354,0.1384,0.1413,0.1449,0.1518,0.1533,0.1598,0.1536,0.1585,0.1634,0.1732,0.1825,0.1668,0.1952,0.1961,0.1964,0.2107,0.2047,0.2339,0.2137,0.2142,0.2145,0,0.1245,0.1267,0.1297,0.134,0.1351,0.1371,0.1432,0.1468,0.1553,0.1595,0.1658,0.1701,0.1802,0.1747,0.1948,0.1863,0.1956,0.2014,0.2028,0.204,0.2022,0.2238,0.2399,0.2325,0.219,0.2186,0.2183,0,0.1234,0.1276,0.1298,0.1311,0.1361,0.1379,0.1415,0.1485,0.1543,0.1679,0.1765,0.1863,0.1974,0.2074,0.2177,0.2106,0.2416,0.2342,0.244,0.2444,0.2448,0.2443,0.2567,0.2503,0.2502,0.2501,0.25,0,0.1237,0.1255,0.1294,0.1306,0.1345,0.1385,0.1453,0.1508,0.1631,0.1741,0.1823,0.1949,0.2063,0.223,0.2287,0.2481,0.2527,0.2496,0.2541,0.2459,0.2452,0.2426,0.2343,0.2514,0.2511,0.2508,0.2506,0,0.1218,0.1244,0.1274,0.1322,0.1339,0.1373,0.1471,0.1545,0.1661,0.1829,0.1897,0.209,0.2315,0.2425,0.2644,0.266,0.2749,0.2857,0.2768,0.2794,0.2763,0.2683,0.2763,0.2672,0.305,0.3052,0.3054,0,0.121,0.1221,0.1274,0.1301,0.1322,0.138,0.144,0.155,0.1659,0.1907,0.2017,0.2271,0.2428,0.2759,0.2866,0.3045,0.2878,0.3085,0.2899,0.2803,0.2749,0.2576,0.2478,0.2954,0.2955,0.2956,0.2956,0,0.1199,0.1217,0.1251,0.1307,0.1362,0.1421,0.1526,0.1599,0.1776,0.1916,0.2138,0.2274,0.2609,0.2777,0.3015,0.3086,0.2924,0.3106,0.3039,0.2722,0.2515,0.2435,0.2708,0.2963,0.2963,0.2962,0.2962,0.2962,0.1198,0.1227,0.1282,0.133,0.1388,0.1461,0.1499,0.1626,0.1765,0.1962,0.215,0.2336,0.265,0.2961,0.3014,0.31,0.2991,0.3041,0.2979,0.2835,0.2641,0.2939,0.3196,0.3196,0.3197,0.3197,0.3198,0,0.1227,0.1269,0.1308,0.1373,0.1418,0.1451,0.1564,0.1601,0.1717,0.1919,0.2077,0.2422,0.2629,0.2834,0.3056,0.2998,0.2811,0.2924,0.2658,0.2584,0.2926,0.2809,0.2952,0.2952,0.2952,0.2952,0.2952,0.2952,0.1257,0.1312,0.1333,0.1394,0.142,0.1468,0.1506,0.155,0.1666,0.1848,0.2033,0.2226,0.2593,0.289,0.2933,0.2868,0.2603,0.2532,0.2456,0.2685,0.2688,0.2691,0.2564,0.2653,0.2653,0.2027,0.2023,0.2019]},{"header":{"parameterUnit":"m.s-1","parameterCategory":2,"la1":30.2991,"la2":30.254,"lo1":-89.0895,"lo2":-89.0444,"dy":0.0017,"dx":0.0017,"nx":28,"ny":28,"refTime":"2024-03-29T09:00:00:Z","depth":"0","parameterNumber":3,"parameterNumberName":"V-component_of_CURRENTS"},"data":[0,0,0,0,0,0,0,0,0,0,0,0,0,0,0,0,0,0,0,0,0,0,0,0,0,0,0,0,0,0,0,0,0,0,0,0,0,0,0,0,0,0,0,0,0,0,0,0,0,0,0,0,0,0,0,0,0,0,-0.0005,-0.0006,0,-0.0062,-0.0062,-0.0063,-0.0099,-0.0099,-0.0099,-0.0099,-0.0183,-0.0185,-0.0188,0,0,0,0,0,0,0,0,0,0,0,0,0,0.0045,0.0044,-0.0005,-0.0006,-0.0007,-0.0062,-0.0062,-0.0063,-0.0099,-0.0099,-0.0099,-0.0099,-0.0183,-0.0185,-0.0188,0,0,0,0,0,0,0,0,0,0,0,0,0,0.0009,0.0044,-0.0005,-0.0031,-0.0034,-0.0062,-0.0062,-0.0063,-0.0099,-0.0099,-0.0099,-0.0099,-0.0182,-0.0185,-0.0188,-0.0201,0,0,-0.0198,-0.0199,0,0,0,0,0,0,0,0,0.0011,0.0007,-0.0026,-0.0029,-0.0032,-0.0073,-0.0076,-0.0111,-0.0098,-0.0074,-0.0099,-0.01,-0.0149,-0.0155,-0.0165,-0.0205,-0.0209,-0.0198,-0.02,-0.0201,-0.0202,0,0,0,0,0,0,0,0.0014,0.001,-0.0028,-0.0027,-0.0031,-0.0049,-0.0054,-0.0083,-0.011,-0.0076,-0.0079,-0.0085,-0.0151,-0.0161,-0.0167,-0.021,-0.0198,-0.02,-0.0202,-0.0204,-0.0276,-0.0276,0,0,0,0,0,0,0.0023,0.0012,-0.0026,-0.0029,-0.0011,-0.0049,-0.0055,-0.006,-0.0109,-0.0116,-0.0085,-0.0086,-0.0156,-0.0163,-0.017,-0.0192,-0.0201,-0.0204,-0.0206,-0.0276,-0.0276,-0.0276,0,0,0,0,0,0,0.0024,0.002,-0.0024,-0.001,-0.0017,-0.005,-0.0055,-0.0061,-0.0072,-0.0115,-0.0123,-0.0089,-0.0157,-0.0166,-0.0197,-0.0195,-0.0205,-0.0208,-0.0276,-0.0276,-0.0276,-0.0234,0,0,0,0,0,0,0.0026,0.0021,0.0021,-0.0009,-0.0017,-0.0034,-0.0055,-0.0062,-0.0075,-0.0078,-0.0122,-0.013,-0.0157,-0.0192,-0.02,-0.02,-0.0211,-0.0275,-0.0276,-0.0276,-0.0235,-0.0232,-0.023,0,0,0,0,0,0.0028,0.0032,0.0022,0.0017,-0.0016,-0.0034,-0.0039,-0.0064,-0.0075,-0.0076,-0.011,-0.0129,-0.0198,-0.0195,-0.0204,-0.0204,-0.0275,-0.0276,-0.0276,-0.0236,-0.0233,-0.023,0,0,0,0,0,0,0.0056,0.0028,0.0016,0.0012,-0.0007,-0.004,-0.0043,-0.0061,-0.0087,-0.0091,-0.0132,-0.0142,-0.0169,-0.0193,-0.0188,-0.0226,-0.0239,-0.0241,-0.0206,-0.0203,-0.02,-0.0194,-0.0213,0,0,0,0,0,0.0063,0.0057,0.0029,0.0026,0.0019,-0.0011,-0.0022,-0.0039,-0.0067,-0.0078,-0.0109,-0.0144,-0.0177,-0.0194,-0.0224,-0.0245,-0.023,-0.0251,-0.0248,-0.0246,-0.0247,-0.0229,-0.0224,-0.0276,-0.0276,-0.0276,0,0,0.0071,0.0057,0.0053,0.0032,0.0015,0.0004,-0.0018,-0.003,-0.0042,-0.0084,-0.0107,-0.0137,-0.0181,-0.0206,-0.0219,-0.0225,-0.0215,-0.0246,-0.0244,-0.0246,-0.0228,-0.0223,-0.0218,-0.0276,-0.0276,-0.0276,0,0,0.0087,0.0076,0.0075,0.0061,0.004,0.0021,0.002,-0.001,-0.0026,-0.005,-0.0086,-0.0116,-0.0159,-0.0193,-0.0215,-0.0218,-0.0204,-0.0223,-0.0205,-0.0187,-0.0182,-0.0177,-0.011,-0.01,-0.022,-0.022,-0.022,0,0.01,0.009,0.0073,0.0068,0.0055,0.0031,0.0024,0.0007,-0.003,-0.0041,-0.0051,-0.0112,-0.0156,-0.0187,-0.0196,-0.0213,-0.0178,-0.0211,-0.0181,-0.0177,-0.0173,-0.0105,-0.0095,-0.0218,-0.0219,-0.0219,-0.0219,0,0.0109,0.0101,0.0102,0.0084,0.0073,0.0065,0.0038,0.0028,0.0008,-0.001,-0.0036,-0.0085,-0.0112,-0.0139,-0.0176,-0.0176,-0.0148,-0.0178,-0.0183,-0.0165,-0.0095,-0.0084,-0.0215,-0.0216,-0.0217,-0.0217,0,0,0.0132,0.0111,0.011,0.0104,0.0078,0.0072,0.0056,0.0035,0.0059,0.0007,0.0038,-0.0063,-0.0065,-0.0092,-0.0128,-0.0137,-0.0084,-0.0145,-0.0145,-0.0066,0.001,-0.0006,0.0004,-0.0098,-0.0097,-0.0096,0.0065,0,0.014,0.0135,0.0118,0.0113,0.0107,0.0083,0.0086,0.0068,0.0071,0.0107,0.0044,0.0069,-0.005,-0.002,-0.0064,-0.0058,-0.0061,-0.0122,-0.003,-0.0027,-0.0035,0.0012,-0.0042,0.0092,0.0075,0.0076,0.0078,0,0.0147,0.0142,0.0137,0.0136,0.0135,0.0135,0.0151,0.0159,0.0186,0.0207,0.0198,0.0195,0.0176,0.0099,0.0072,0.0051,0.0022,0.0006,0.0012,-0.0017,-0.0026,0.006,0.0111,-0.0086,0.0093,0.0092,0.0091,0,0.0165,0.0155,0.0152,0.0146,0.0145,0.0146,0.0158,0.0183,0.0255,0.0311,0.0415,0.0346,0.0418,0.0321,0.025,0.0192,0.0259,0.0186,0.0139,0.0141,0.0101,0.0097,-0.0026,0.016,0.016,0.016,0.0159,0,0.0174,0.0173,0.0166,0.0165,0.0204,0.0187,0.0274,0.0286,0.0403,0.0554,0.0493,0.0625,0.0481,0.0495,0.0355,0.0302,0.0343,0.0161,0.0174,0.0118,0.0113,-0.0057,-0.0152,0.0166,0.0164,0.0163,0.0162,0,0.0192,0.018,0.0197,0.0203,0.0215,0.0254,0.0382,0.0496,0.0569,0.0789,0.0843,0.0899,0.0903,0.075,0.0669,0.0505,0.0317,0.0374,0.034,0.0341,0.0065,-0.0023,-0.0066,-0.0144,0.036,0.036,0.0361,0,0.0199,0.0203,0.024,0.0307,0.0317,0.0392,0.05,0.0577,0.0746,0.0969,0.1123,0.1184,0.1236,0.1096,0.0811,0.0597,0.0388,0.0421,0.0245,0.0055,-0.0033,-0.0092,-0.0159,0.0245,0.0245,0.0244,0.0244,0,0.0247,0.0265,0.0307,0.044,0.0547,0.0671,0.0828,0.0968,0.1134,0.1306,0.1538,0.1581,0.1428,0.1186,0.0872,0.0676,0.0268,0.0404,0.0205,-0.0136,-0.0204,-0.0273,0.017,0.0239,0.024,0.024,0.024,0.0241,0.0324,0.0407,0.0515,0.0636,0.0769,0.0976,0.1097,0.1292,0.1533,0.1789,0.1821,0.1886,0.1506,0.1043,0.0764,0.0216,0.0247,0.0018,-0.0059,-0.009,-0.0236,0.0216,0.0279,0.0279,0.028,0.028,0.0281,0,0.051,0.0616,0.0733,0.0916,0.1085,0.1112,0.1363,0.1494,0.1751,0.1936,0.2074,0.1915,0.1422,0.0906,0.0197,-0.0187,-0.0345,-0.0389,-0.0529,-0.0568,-0.0168,-0.0255,-0.0304,-0.0304,-0.0304,-0.0304,-0.0304,-0.0303,0.0649,0.0838,0.0901,0.1195,0.1301,0.1531,0.1659,0.1817,0.1947,0.2123,0.2149,0.2139,0.1747,0.0471,-0.0438,-0.0645,-0.0901,-0.0936,-0.1022,-0.0829,-0.0799,-0.0771,-0.088,-0.106,-0.1061,-0.1426,-0.143,-0.1433]}],[{"header":{"parameterUnit":"m.s-1","parameterCategory":2,"la1":30.2991,"la2":30.254,"lo1":-89.0895,"lo2":-89.0444,"dy":0.0017,"dx":0.0017,"nx":28,"ny":28,"refTime":"2024-03-29T09:00:00:Z","depth":"2","parameterNumber":2,"parameterNumberName":"U-component_of_CURRENTS"},"data":[0,0,0,0,0,0,0,0,0,0,0,0,0,0,0,0,0,0,0,0,0,0,0,0,0,0,0,0,0,0,0,0,0,0,0,0,0,0,0,0,0,0,0,0,0,0,0,0,0,0,0,0,0,0,0,0,0,0,0.1233,0.1234,0,0.1254,0.1254,0.1255,0.1256,0.1256,0.1256,0.1256,0.1266,0.1267,0.1267,0,0,0,0,0,0,0,0,0,0,0,0,0,0.1194,0.1194,0.1233,0.1234,0.1234,0.1254,0.1254,0.1255,0.1256,0.1256,0.1256,0.1256,0.1266,0.1267,0.1267,0,0,0,0,0,0,0,0,0,0,0,0,0,0.1211,0.1195,0.1233,0.1238,0.1239,0.1254,0.1254,0.1255,0.1256,0.1256,0.1256,0.1255,0.1266,0.1267,0.1267,0.1275,0,0,0.1269,0.1269,0,0,0,0,0,0,0,0,0.121,0.1213,0.1237,0.1238,0.1239,0.1253,0.1244,0.1261,0.1256,0.1248,0.1256,0.1255,0.1262,0.1263,0.1266,0.1275,0.1276,0.1269,0.127,0.127,0.127,0,0,0,0,0,0,0,0.1209,0.1212,0.1241,0.1238,0.1238,0.1239,0.1241,0.1248,0.1255,0.1249,0.1249,0.1254,0.1262,0.1265,0.1266,0.1276,0.1269,0.127,0.127,0.127,0.1334,0.1335,0,0,0,0,0,0,0.1209,0.1211,0.124,0.1241,0.1225,0.124,0.1242,0.1248,0.1255,0.1256,0.1254,0.1254,0.1264,0.1265,0.1266,0.1307,0.127,0.127,0.1271,0.1333,0.1334,0.1336,0,0,0,0,0,0,0.1208,0.1212,0.1239,0.1227,0.1231,0.1241,0.1247,0.1248,0.1257,0.1259,0.126,0.1262,0.1264,0.1266,0.1287,0.1306,0.1271,0.1271,0.1331,0.1333,0.1335,0.1367,0,0,0,0,0,0,0.1207,0.1211,0.1218,0.1227,0.1232,0.126,0.1247,0.1249,0.126,0.126,0.1266,0.1267,0.1264,0.1286,0.1287,0.1306,0.1272,0.133,0.1332,0.1334,0.1365,0.137,0.1375,0,0,0,0,0,0.1206,0.122,0.1218,0.1222,0.124,0.1261,0.1263,0.1268,0.1261,0.1273,0.1278,0.1267,0.1303,0.1288,0.1289,0.1308,0.1328,0.1331,0.1334,0.1362,0.1369,0.1375,0,0,0,0,0,0,0.1212,0.1222,0.122,0.1238,0.1252,0.1261,0.1274,0.1273,0.1286,0.1286,0.1281,0.1283,0.1309,0.1307,0.1291,0.1336,0.1315,0.1318,0.1336,0.1342,0.1347,0.1348,0.1272,0,0,0,0,0,0.1215,0.1225,0.1236,0.1252,0.1259,0.1266,0.1274,0.1279,0.1289,0.1295,0.1298,0.1307,0.1322,0.133,0.1342,0.1364,0.1405,0.138,0.1385,0.1389,0.1392,0.1479,0.1493,0.1346,0.1346,0.1345,0,0,0.122,0.1229,0.1234,0.1254,0.1263,0.1279,0.1271,0.1291,0.1305,0.1294,0.1316,0.1324,0.1333,0.1361,0.1372,0.1361,0.1458,0.1393,0.1396,0.1397,0.1484,0.1498,0.1511,0.1348,0.1347,0.1347,0,0,0.1238,0.1246,0.1258,0.1272,0.129,0.1297,0.1303,0.1318,0.1326,0.1348,0.1348,0.1368,0.1385,0.14,0.1408,0.1449,0.1482,0.1454,0.148,0.1565,0.1578,0.159,0.1683,0.1703,0.1457,0.1457,0.1457,0,0.1242,0.1259,0.1267,0.1285,0.1298,0.1305,0.1322,0.1336,0.1356,0.1369,0.1361,0.1406,0.1405,0.1448,0.1459,0.146,0.1521,0.1453,0.1573,0.1585,0.1596,0.1689,0.171,0.1459,0.1459,0.1459,0.1459,0,0.1266,0.1282,0.1294,0.1314,0.1331,0.1351,0.1368,0.1386,0.1393,0.1406,0.1449,0.146,0.1494,0.1492,0.1483,0.1561,0.1585,0.157,0.1556,0.1613,0.1707,0.1729,0.1462,0.1461,0.1461,0.146,0,0,0.1264,0.1301,0.1304,0.1318,0.1347,0.1363,0.1393,0.1423,0.1458,0.1472,0.1534,0.1535,0.1554,0.1565,0.157,0.162,0.175,0.163,0.1634,0.1722,0.1964,0.1881,0.1897,0.1767,0.177,0.1773,0.2005,0,0.1277,0.131,0.1327,0.1359,0.1377,0.1397,0.1431,0.1461,0.1495,0.1561,0.1579,0.1643,0.1582,0.1627,0.1664,0.1741,0.1806,0.1689,0.1895,0.1902,0.182,0.1918,0.1742,0.1925,0.2027,0.203,0.2033,0,0.1289,0.131,0.134,0.1385,0.1396,0.1418,0.1478,0.1514,0.1597,0.1636,0.1693,0.1736,0.182,0.1771,0.1916,0.1854,0.1911,0.1951,0.1961,0.1883,0.1857,0.188,0.1961,0.2069,0.2067,0.2064,0.2061,0,0.1275,0.1319,0.1341,0.1354,0.1406,0.1427,0.1462,0.153,0.1588,0.1712,0.1791,0.1874,0.1968,0.2035,0.209,0.2044,0.2258,0.2214,0.2191,0.2187,0.2074,0.2052,0.2327,0.2327,0.2326,0.2325,0.2325,0,0.1278,0.1295,0.1337,0.1348,0.1392,0.143,0.1501,0.155,0.1667,0.1768,0.1841,0.1955,0.2042,0.2158,0.218,0.2258,0.2343,0.2223,0.2246,0.208,0.2058,0.2194,0.2175,0.2334,0.2332,0.2331,0.2329,0,0.1256,0.1282,0.1312,0.1364,0.1384,0.1418,0.1523,0.1597,0.1697,0.1848,0.1911,0.2077,0.2225,0.2285,0.2434,0.2388,0.2461,0.246,0.2256,0.2248,0.232,0.2301,0.2496,0.2495,0.2494,0.2494,0.2493,0,0.1246,0.1257,0.1313,0.1348,0.1371,0.1435,0.1501,0.1602,0.1706,0.1913,0.2013,0.2196,0.2301,0.247,0.2449,0.25,0.2509,0.2354,0.2198,0.2337,0.2341,0.2323,0.2305,0.2092,0.2088,0.2085,0.2083,0,0.1232,0.1251,0.1288,0.1362,0.1424,0.1486,0.1594,0.1662,0.1814,0.1929,0.21,0.2192,0.2345,0.2322,0.2367,0.2349,0.2321,0.229,0.255,0.2038,0.1964,0.1964,0.1959,0.2055,0.2058,0.206,0.2062,0.2063,0.1234,0.1264,0.1332,0.1396,0.1465,0.1532,0.156,0.1677,0.1789,0.1894,0.2043,0.2089,0.2167,0.2126,0.2104,0.2071,0.2199,0.2097,0.2105,0.2116,0.1989,0.1913,0.1974,0.1977,0.1978,0.198,0.1982,0,0.1261,0.1312,0.1372,0.1452,0.1498,0.1538,0.1631,0.1614,0.1681,0.179,0.1846,0.1732,0.1757,0.1832,0.1749,0.1758,0.1709,0.1689,0.1622,0.1652,0.1678,0.1524,0.139,0.1388,0.1386,0.1384,0,0,0.1292,0.1355,0.1385,0.1461,0.1504,0.1529,0.1538,0.1497,0.1535,0.1481,0.149,0.1589,0.1761,0.153,0.1532,0.1462,0.1531,0.1398,0.1878,0.1828,0.1851,0.1926,0.1725,0,0,0,0,0]},{"header":{"parameterUnit":"m.s-1","parameterCategory":2,"la1":30.2991,"la2":30.254,"lo1":-89.0895,"lo2":-89.0444,"dy":0.0017,"dx":0.0017,"nx":28,"ny":28,"refTime":"2024-03-29T09:00:00:Z","depth":"2","parameterNumber":3,"parameterNumberName":"V-component_of_CURRENTS"},"data":[0,0,0,0,0,0,0,0,0,0,0,0,0,0,0,0,0,0,0,0,0,0,0,0,0,0,0,0,0,0,0,0,0,0,0,0,0,0,0,0,0,0,0,0,0,0,0,0,0,0,0,0,0,0,0,0,0,0,-0.0194,-0.0194,0,-0.0243,-0.0244,-0.0244,-0.0276,-0.0276,-0.0276,-0.0276,-0.035,-0.0352,-0.0353,0,0,0,0,0,0,0,0,0,0,0,0,0,-0.0149,-0.015,-0.0194,-0.0194,-0.0195,-0.0243,-0.0244,-0.0244,-0.0276,-0.0276,-0.0276,-0.0276,-0.0349,-0.0351,-0.0354,0,0,0,0,0,0,0,0,0,0,0,0,0,-0.0181,-0.015,-0.0194,-0.0216,-0.0219,-0.0243,-0.0244,-0.0245,-0.0276,-0.0276,-0.0276,-0.0276,-0.0349,-0.0351,-0.0354,-0.0365,0,0,-0.0362,-0.0363,0,0,0,0,0,0,0,0,-0.0179,-0.0182,-0.0212,-0.0215,-0.0218,-0.0253,-0.0255,-0.0286,-0.0276,-0.0254,-0.0276,-0.0277,-0.032,-0.0325,-0.0333,-0.0369,-0.0372,-0.0362,-0.0364,-0.0365,-0.0366,0,0,0,0,0,0,0,-0.0176,-0.018,-0.0213,-0.0213,-0.0216,-0.0232,-0.0236,-0.0261,-0.0285,-0.0256,-0.0258,-0.0264,-0.0321,-0.0331,-0.0335,-0.0373,-0.0362,-0.0365,-0.0366,-0.0367,-0.0429,-0.0429,0,0,0,0,0,0,-0.0169,-0.0178,-0.0212,-0.0215,-0.0198,-0.0232,-0.0237,-0.0242,-0.0285,-0.0291,-0.0263,-0.0265,-0.0326,-0.0332,-0.0338,-0.0354,-0.0365,-0.0368,-0.0369,-0.0429,-0.0429,-0.0429,0,0,0,0,0,0,-0.0168,-0.0171,-0.021,-0.0198,-0.0204,-0.0232,-0.0237,-0.0243,-0.0251,-0.029,-0.0297,-0.0266,-0.0326,-0.0334,-0.036,-0.0357,-0.0369,-0.0371,-0.0429,-0.0429,-0.0429,-0.0385,0,0,0,0,0,0,-0.0166,-0.017,-0.0169,-0.0197,-0.0204,-0.0218,-0.0237,-0.0243,-0.0254,-0.0256,-0.0295,-0.0302,-0.0327,-0.0356,-0.0363,-0.0361,-0.0373,-0.0429,-0.0429,-0.0429,-0.0387,-0.0384,-0.0381,0,0,0,0,0,-0.0164,-0.016,-0.0169,-0.0173,-0.0202,-0.0218,-0.0223,-0.0245,-0.0254,-0.0254,-0.0283,-0.0301,-0.0361,-0.0358,-0.0366,-0.0365,-0.0429,-0.0429,-0.0429,-0.0388,-0.0384,-0.0381,0,0,0,0,0,0,-0.0139,-0.0164,-0.0174,-0.0178,-0.0194,-0.0223,-0.0225,-0.024,-0.0263,-0.0266,-0.0303,-0.0312,-0.0334,-0.0355,-0.0351,-0.0383,-0.0397,-0.0399,-0.0363,-0.036,-0.0358,-0.0349,-0.0376,0,0,0,0,0,-0.0133,-0.0137,-0.0163,-0.0164,-0.0171,-0.0197,-0.0206,-0.022,-0.0244,-0.0254,-0.0281,-0.0311,-0.034,-0.0354,-0.0382,-0.0398,-0.0414,-0.0402,-0.04,-0.0397,-0.0396,-0.0418,-0.0417,-0.0429,-0.0429,-0.0429,0,0,-0.0125,-0.0137,-0.0141,-0.0159,-0.0174,-0.018,-0.0202,-0.0211,-0.0218,-0.0259,-0.0274,-0.0303,-0.0343,-0.0363,-0.0374,-0.038,-0.04,-0.0397,-0.0395,-0.0395,-0.0418,-0.0417,-0.0416,-0.0429,-0.0429,-0.0429,0,0,-0.0108,-0.0119,-0.0118,-0.0129,-0.0147,-0.0163,-0.0163,-0.0188,-0.02,-0.0219,-0.0252,-0.0278,-0.0317,-0.0346,-0.0366,-0.0365,-0.0386,-0.0372,-0.0351,-0.0372,-0.0371,-0.037,-0.0378,-0.0378,-0.0369,-0.0369,-0.0369,0,-0.0095,-0.01,-0.0119,-0.0119,-0.0127,-0.0152,-0.0152,-0.0167,-0.0197,-0.0208,-0.0217,-0.0276,-0.0309,-0.034,-0.0342,-0.0359,-0.0369,-0.0358,-0.0367,-0.0367,-0.0367,-0.0376,-0.0377,-0.0367,-0.0367,-0.0367,-0.0367,0,-0.0081,-0.0084,-0.0082,-0.0093,-0.0101,-0.0104,-0.0127,-0.0135,-0.0152,-0.0171,-0.0199,-0.0242,-0.0274,-0.0292,-0.0319,-0.0338,-0.0344,-0.0361,-0.0372,-0.0363,-0.0373,-0.0375,-0.0364,-0.0365,-0.0365,-0.0366,0,0,-0.0056,-0.007,-0.007,-0.007,-0.0088,-0.0093,-0.0101,-0.0118,-0.0111,-0.0149,-0.014,-0.0211,-0.0227,-0.0251,-0.0286,-0.0312,-0.0322,-0.0333,-0.0335,-0.0334,-0.0357,-0.0414,-0.0421,-0.0338,-0.0339,-0.0339,-0.0359,0,-0.0041,-0.0035,-0.0049,-0.0044,-0.0043,-0.0066,-0.0066,-0.0083,-0.0092,-0.0084,-0.0137,-0.0133,-0.0213,-0.0202,-0.0253,-0.0292,-0.0327,-0.0315,-0.0371,-0.0373,-0.042,-0.0426,-0.0365,-0.0383,-0.0361,-0.0361,-0.0361,0,-0.0026,-0.0024,-0.0016,-0.0018,-0.0018,-0.0017,-0.0015,-0.0014,-0.0018,-0.0014,-0.0038,-0.0054,-0.0094,-0.0142,-0.0246,-0.0231,-0.0297,-0.034,-0.0342,-0.0414,-0.0434,-0.0392,-0.0388,-0.0365,-0.0364,-0.0364,-0.0364,0,-0.0002,-0.0002,0.0006,0.0004,0.0,0.0002,0.0005,0.0004,0.0037,0.0055,0.0103,0.0025,0.0041,-0.0073,-0.0201,-0.0201,-0.031,-0.0313,-0.0435,-0.0439,-0.041,-0.0411,-0.0392,-0.0392,-0.0392,-0.0392,-0.0392,0,0.0017,0.0023,0.0021,0.0026,0.0052,0.0036,0.008,0.008,0.0128,0.0184,0.0151,0.0177,0.0062,-0.0019,-0.016,-0.032,-0.0288,-0.0435,-0.0454,-0.0393,-0.0393,-0.0399,-0.0399,-0.0393,-0.0393,-0.0392,-0.0392,0,0.004,0.0035,0.0053,0.0058,0.0065,0.0089,0.015,0.0203,0.0232,0.0318,0.0348,0.0323,0.021,0.0052,-0.0108,-0.0241,-0.0397,-0.0469,-0.0392,-0.0404,-0.0509,-0.0507,-0.0559,-0.0561,-0.0563,-0.0564,-0.0566,0,0.005,0.0059,0.0086,0.0122,0.0128,0.017,0.0223,0.0257,0.0338,0.0381,0.0446,0.038,0.0319,0.0052,-0.0174,-0.0408,-0.0459,-0.0505,-0.051,-0.0517,-0.0529,-0.0524,-0.0519,-0.0437,-0.0437,-0.0437,-0.0437,0,0.0081,0.0092,0.0118,0.0185,0.0243,0.0305,0.0383,0.0438,0.0491,0.0508,0.0513,0.0463,0.0293,0.0079,-0.0217,-0.038,-0.0461,-0.0517,-0.0533,-0.0425,-0.041,-0.042,-0.0417,-0.0439,-0.0439,-0.0438,-0.0438,-0.0438,0.0117,0.0156,0.0202,0.0259,0.034,0.0411,0.0411,0.0495,0.0518,0.0555,0.0533,0.0488,0.0356,-0.0011,-0.026,-0.0489,-0.0499,-0.0558,-0.0553,-0.055,-0.0553,-0.0545,-0.0598,-0.0599,-0.0599,-0.06,-0.06,0,0.015,0.0211,0.0277,0.0331,0.0386,0.0446,0.0508,0.0503,0.0462,0.058,0.0549,0.041,0.0214,0.0044,-0.0275,-0.0491,-0.0473,-0.0563,-0.0471,-0.0469,-0.0467,-0.0463,-0.0486,-0.0486,-0.0486,-0.0487,0,0,0.0185,0.0238,0.0263,0.0339,0.0398,0.0422,0.0423,0.0437,0.0499,0.0509,0.0543,0.0577,0.0367,0.0155,-0.0126,-0.0294,-0.0335,-0.0335,-0.0404,-0.0261,-0.0256,-0.0446,-0.0437,0,0,0,0,0]}],[{"header":{"parameterUnit":"m.s-1","parameterCategory":2,"la1":30.2991,"la2":30.254,"lo1":-89.0895,"lo2":-89.0444,"dy":0.0017,"dx":0.0017,"nx":28,"ny":28,"refTime":"2024-03-29T09:00:00:Z","depth":"4","parameterNumber":2,"parameterNumberName":"U-component_of_CURRENTS"},"data":[0,0,0,0,0,0,0,0,0,0,0,0,0,0,0,0,0,0,0,0,0,0,0,0,0,0,0,0,0,0,0,0,0,0,0,0,0,0,0,0,0,0,0,0,0,0,0,0,0,0,0,0,0,0,0,0,0,0,0.0821,0.0822,0,0.0871,0.0871,0.0872,0.0905,0.0905,0.0905,0.0906,0.0941,0.0941,0.0942,0,0,0,0,0,0,0,0,0,0,0,0,0,0.0754,0.0755,0.0821,0.0822,0.0822,0.0871,0.0871,0.0872,0.0905,0.0905,0.0905,0.0906,0.0941,0.0941,0.0942,0,0,0,0,0,0,0,0,0,0,0,0,0,0.079,0.0755,0.0821,0.0845,0.0848,0.087,0.0871,0.0872,0.0905,0.0905,0.0906,0.0906,0.094,0.0941,0.0942,0.0939,0,0,0.0945,0.0946,0,0,0,0,0,0,0,0,0.0788,0.0793,0.0841,0.0844,0.0847,0.0883,0.0861,0.0894,0.0904,0.0882,0.0906,0.0906,0.092,0.0923,0.093,0.094,0.0942,0.0945,0.0946,0.0946,0.0946,0,0,0,0,0,0,0,0.0786,0.0791,0.084,0.0842,0.0845,0.0854,0.0859,0.0867,0.0897,0.0884,0.0887,0.0894,0.0922,0.0929,0.0931,0.0942,0.0945,0.0946,0.0947,0.0947,0.0994,0.0995,0,0,0,0,0,0,0.0781,0.0788,0.0838,0.0841,0.0819,0.0855,0.0861,0.087,0.0897,0.0902,0.0893,0.0895,0.0927,0.093,0.0932,0.0978,0.0946,0.0947,0.0948,0.0994,0.0995,0.0995,0,0,0,0,0,0,0.078,0.0785,0.0836,0.0816,0.0824,0.0855,0.0865,0.0871,0.0896,0.0905,0.0909,0.0915,0.0928,0.0931,0.0954,0.0978,0.0948,0.0948,0.0993,0.0994,0.0995,0.1038,0,0,0,0,0,0,0.0777,0.0784,0.0797,0.0816,0.0825,0.0859,0.0865,0.0871,0.0899,0.0902,0.0924,0.0927,0.0928,0.0953,0.0955,0.0978,0.0949,0.0992,0.0993,0.0995,0.1035,0.104,0.1044,0,0,0,0,0,0.0775,0.0787,0.0797,0.0804,0.0839,0.086,0.0865,0.0888,0.09,0.0913,0.0929,0.0927,0.0963,0.0954,0.0957,0.0981,0.0992,0.0993,0.0995,0.1033,0.1039,0.1044,0,0,0,0,0,0,0.0767,0.0792,0.0804,0.0825,0.0846,0.0866,0.0884,0.0898,0.0921,0.093,0.0936,0.094,0.0966,0.0966,0.0957,0.0997,0.0977,0.0979,0.1006,0.1011,0.1015,0.1026,0.095,0,0,0,0,0,0.077,0.0787,0.081,0.083,0.0842,0.0866,0.0881,0.0897,0.0916,0.0929,0.0944,0.0959,0.0971,0.0986,0.0991,0.1017,0.103,0.1034,0.1038,0.1042,0.1052,0.1086,0.1095,0.1,0.1,0.1,0,0,0.0772,0.0789,0.08,0.0829,0.0849,0.0865,0.0877,0.0905,0.092,0.0927,0.0958,0.0972,0.0978,0.1005,0.1018,0.1013,0.1077,0.1044,0.1047,0.1055,0.1089,0.1098,0.1107,0.1001,0.1001,0.1001,0,0,0.0778,0.0802,0.0816,0.0832,0.0865,0.0879,0.089,0.0921,0.0939,0.0967,0.0975,0.1008,0.1025,0.1043,0.105,0.1082,0.1092,0.1084,0.1125,0.1158,0.1167,0.1174,0.1211,0.1222,0.1094,0.1094,0.1094,0,0.0781,0.0799,0.0824,0.0839,0.0855,0.0885,0.0901,0.092,0.0955,0.0979,0.0981,0.1034,0.1043,0.1082,0.1099,0.1094,0.1116,0.1106,0.1165,0.1173,0.118,0.1216,0.1227,0.1097,0.1096,0.1096,0.1096,0,0.0791,0.0809,0.0819,0.0847,0.087,0.0889,0.0917,0.095,0.0979,0.1001,0.1051,0.1072,0.1114,0.1119,0.1122,0.1179,0.118,0.1161,0.1155,0.1192,0.1228,0.1239,0.11,0.1099,0.1098,0.1098,0,0,0.0779,0.0818,0.0821,0.0837,0.0875,0.0895,0.0932,0.0975,0.1015,0.105,0.1101,0.1135,0.1169,0.1181,0.1196,0.1229,0.1302,0.1227,0.1228,0.1269,0.1389,0.1275,0.1276,0.1298,0.13,0.1302,0.1398,0,0.0778,0.0805,0.0825,0.0853,0.0871,0.0912,0.0944,0.0992,0.104,0.1097,0.1134,0.1189,0.1183,0.1229,0.1258,0.1303,0.1332,0.1279,0.1343,0.1345,0.1242,0.1284,0.1307,0.1406,0.1408,0.141,0.1411,0,0.0772,0.0794,0.0826,0.0866,0.0879,0.0909,0.0988,0.1017,0.1099,0.1147,0.1215,0.125,0.1333,0.1306,0.1402,0.1374,0.1387,0.1401,0.1404,0.129,0.1249,0.1357,0.1431,0.1429,0.1428,0.1426,0.1425,0,0.0749,0.0786,0.0817,0.083,0.0887,0.0927,0.0963,0.1046,0.1092,0.12,0.1258,0.1341,0.1394,0.1443,0.1466,0.1464,0.1533,0.1535,0.1434,0.1427,0.1484,0.1474,0.1572,0.1572,0.1571,0.1571,0.1571,0,0.0725,0.0744,0.0819,0.0832,0.0881,0.0928,0.1002,0.1053,0.1151,0.1205,0.1289,0.1336,0.1429,0.1466,0.1495,0.1491,0.1561,0.1452,0.1444,0.1499,0.1491,0.1492,0.1481,0.1575,0.1574,0.1573,0.1573,0,0.0684,0.0731,0.0763,0.0838,0.0871,0.0908,0.1012,0.106,0.1164,0.1243,0.1288,0.137,0.1437,0.1481,0.155,0.151,0.1531,0.1488,0.1546,0.1537,0.1411,0.1402,0.1459,0.1456,0.1453,0.1451,0.1449,0,0.0664,0.0682,0.0762,0.0801,0.084,0.0917,0.0964,0.1063,0.11,0.1239,0.1244,0.1347,0.1391,0.14,0.1452,0.1502,0.1459,0.1465,0.1446,0.1414,0.1401,0.1395,0.139,0.1445,0.1444,0.1443,0.1442,0,0.0618,0.0656,0.0673,0.0759,0.0818,0.0876,0.0937,0.0961,0.1063,0.1174,0.1209,0.1263,0.1298,0.1346,0.1352,0.1378,0.1483,0.1437,0.1444,0.1426,0.1397,0.1385,0.1383,0.1433,0.1434,0.1435,0.1436,0,0.0571,0.0577,0.0627,0.0688,0.0756,0.0798,0.0848,0.089,0.0943,0.1078,0.1081,0.1187,0.1271,0.1276,0.1293,0.1307,0.1321,0.1294,0.1309,0.132,0.1225,0.1163,0.1131,0,0,0,0,0,0.0532,0.0534,0.0573,0.062,0.0682,0.0737,0.0806,0.0855,0.0943,0.0945,0.1021,0.1061,0.1128,0.1162,0.1157,0.1239,0.1314,0.1227,0.1286,0.138,0.1391,0.1289,0,0,0,0,0,0,0.0504,0.0523,0.0535,0.0553,0.0585,0.0646,0.0686,0.0756,0.0748,0.0859,0.0884,0.1003,0.1057,0.1128,0.1139,0.1156,0.1174,0.1299,0.1296,0.1374,0.1384,0.1393,0.1291,0,0,0,0,0]},{"header":{"parameterUnit":"m.s-1","parameterCategory":2,"la1":30.2991,"la2":30.254,"lo1":-89.0895,"lo2":-89.0444,"dy":0.0017,"dx":0.0017,"nx":28,"ny":28,"refTime":"2024-03-29T09:00:00:Z","depth":"4","parameterNumber":3,"parameterNumberName":"V-component_of_CURRENTS"},"data":[0,0,0,0,0,0,0,0,0,0,0,0,0,0,0,0,0,0,0,0,0,0,0,0,0,0,0,0,0,0,0,0,0,0,0,0,0,0,0,0,0,0,0,0,0,0,0,0,0,0,0,0,0,0,0,0,0,0,-0.0196,-0.0196,0,-0.0227,-0.0227,-0.0227,-0.0259,-0.0259,-0.026,-0.026,-0.0313,-0.0314,-0.0315,0,0,0,0,0,0,0,0,0,0,0,0,0,-0.0178,-0.0178,-0.0196,-0.0196,-0.0196,-0.0227,-0.0227,-0.0228,-0.0259,-0.0259,-0.026,-0.026,-0.0312,-0.0313,-0.0315,0,0,0,0,0,0,0,0,0,0,0,0,0,-0.0195,-0.0178,-0.0196,-0.0215,-0.0217,-0.0226,-0.0227,-0.0228,-0.0259,-0.0259,-0.026,-0.0261,-0.0312,-0.0313,-0.0315,-0.0313,0,0,-0.032,-0.032,0,0,0,0,0,0,0,0,-0.0194,-0.0196,-0.0212,-0.0214,-0.0216,-0.0239,-0.024,-0.0257,-0.0259,-0.0244,-0.026,-0.0261,-0.0289,-0.0293,-0.0298,-0.0316,-0.0318,-0.032,-0.0321,-0.0321,-0.0322,0,0,0,0,0,0,0,-0.0193,-0.0195,-0.0209,-0.0212,-0.0215,-0.0227,-0.023,-0.0243,-0.0264,-0.0245,-0.0247,-0.025,-0.0291,-0.0296,-0.0299,-0.0319,-0.032,-0.0321,-0.0322,-0.0323,-0.0347,-0.0347,0,0,0,0,0,0,-0.0187,-0.0194,-0.0208,-0.0209,-0.0206,-0.0227,-0.023,-0.0232,-0.0263,-0.0268,-0.0249,-0.0251,-0.0293,-0.0297,-0.0301,-0.0305,-0.0321,-0.0323,-0.0324,-0.0347,-0.0347,-0.0347,0,0,0,0,0,0,-0.0186,-0.0188,-0.0206,-0.0202,-0.0205,-0.0227,-0.0228,-0.0232,-0.0243,-0.0266,-0.0272,-0.0256,-0.0294,-0.0299,-0.0315,-0.0307,-0.0324,-0.0325,-0.0348,-0.0347,-0.0347,-0.031,0,0,0,0,0,0,-0.0185,-0.0187,-0.0189,-0.0201,-0.0205,-0.0212,-0.0227,-0.0232,-0.0243,-0.0246,-0.0274,-0.0279,-0.0295,-0.0312,-0.0316,-0.031,-0.0326,-0.0348,-0.0348,-0.0347,-0.0311,-0.0308,-0.0305,0,0,0,0,0,-0.0185,-0.0183,-0.0189,-0.0191,-0.0206,-0.0211,-0.0214,-0.0232,-0.0242,-0.0245,-0.0264,-0.0278,-0.0312,-0.0314,-0.0318,-0.0312,-0.0348,-0.0348,-0.0347,-0.0313,-0.0309,-0.0306,0,0,0,0,0,0,-0.0178,-0.0186,-0.0193,-0.0195,-0.0202,-0.0217,-0.0222,-0.0231,-0.0248,-0.0254,-0.0277,-0.0283,-0.0293,-0.0308,-0.0309,-0.0317,-0.0331,-0.0332,-0.0304,-0.03,-0.0297,-0.0276,-0.0328,0,0,0,0,0,-0.0176,-0.0177,-0.0186,-0.0189,-0.0191,-0.0206,-0.0212,-0.0222,-0.0237,-0.0245,-0.0263,-0.0281,-0.0292,-0.0301,-0.0315,-0.0321,-0.0353,-0.0319,-0.0316,-0.0313,-0.0299,-0.0329,-0.0327,-0.0345,-0.0345,-0.0345,0,0,-0.0175,-0.0179,-0.0181,-0.0187,-0.0196,-0.019,-0.0212,-0.0219,-0.0211,-0.0248,-0.0249,-0.0272,-0.0291,-0.0297,-0.0302,-0.031,-0.0334,-0.0312,-0.031,-0.0297,-0.0328,-0.0326,-0.0325,-0.0344,-0.0344,-0.0344,0,0,-0.0165,-0.0176,-0.017,-0.0172,-0.018,-0.0185,-0.0185,-0.0198,-0.0203,-0.021,-0.023,-0.0244,-0.0269,-0.0273,-0.028,-0.0268,-0.0317,-0.028,-0.0248,-0.0277,-0.0276,-0.0275,-0.0353,-0.0359,-0.0278,-0.0278,-0.0278,0,-0.0163,-0.0152,-0.017,-0.0161,-0.0153,-0.0178,-0.0161,-0.0169,-0.0185,-0.0182,-0.0207,-0.023,-0.0251,-0.0243,-0.0243,-0.0258,-0.0305,-0.026,-0.0273,-0.0272,-0.0272,-0.0352,-0.036,-0.0277,-0.0277,-0.0277,-0.0277,0,-0.0144,-0.0134,-0.0131,-0.0122,-0.0119,-0.011,-0.0116,-0.0118,-0.0132,-0.014,-0.0146,-0.0177,-0.0193,-0.0201,-0.0221,-0.0222,-0.0269,-0.0266,-0.0281,-0.0268,-0.0354,-0.0363,-0.0274,-0.0275,-0.0275,-0.0276,0,0,-0.0133,-0.0117,-0.0115,-0.0094,-0.0093,-0.0083,-0.0072,-0.006,-0.0058,-0.0078,-0.0078,-0.0091,-0.0122,-0.0131,-0.0159,-0.018,-0.0236,-0.0223,-0.0226,-0.03,-0.0347,-0.0281,-0.0285,-0.0241,-0.0241,-0.0242,-0.0423,0,-0.0107,-0.0071,-0.0071,-0.0031,-0.0008,-0.0016,-0.0003,-0.0001,-0.002,-0.0036,-0.0056,-0.0082,-0.0091,-0.0121,-0.0134,-0.0225,-0.025,-0.0189,-0.0348,-0.0354,-0.0294,-0.0287,-0.0242,-0.0429,-0.0431,-0.0433,-0.0434,0,-0.0081,-0.0055,-0.0011,0.0029,0.0037,0.0051,0.0069,0.0074,0.0048,0.0025,0.0003,-0.0041,-0.0087,-0.0097,-0.0211,-0.0182,-0.0249,-0.0306,-0.0314,-0.0261,-0.0299,-0.0436,-0.0449,-0.0448,-0.0447,-0.0446,-0.0445,0,-0.0051,-0.0008,0.0035,0.0048,0.0078,0.0096,0.0105,0.0092,0.0084,0.0044,0.001,-0.0037,-0.0096,-0.0167,-0.0264,-0.0267,-0.039,-0.0418,-0.0413,-0.0414,-0.0439,-0.0438,-0.0461,-0.0461,-0.0461,-0.046,-0.046,0,-0.0013,0.0021,0.0051,0.0075,0.0114,0.0125,0.0138,0.0134,0.0101,0.0087,0.0034,0.0006,-0.0113,-0.019,-0.0275,-0.0365,-0.0402,-0.0403,-0.0436,-0.0427,-0.0422,-0.0449,-0.0445,-0.0467,-0.0465,-0.0464,-0.0463,0,0.0012,0.003,0.0079,0.0119,0.0126,0.015,0.0146,0.0137,0.0114,0.0084,0.0062,-0.0008,-0.0109,-0.0204,-0.0347,-0.0383,-0.0475,-0.0478,-0.0485,-0.0517,-0.0501,-0.0494,-0.0559,-0.0557,-0.0556,-0.0555,-0.0555,0,0.0029,0.0055,0.01,0.0099,0.0112,0.0135,0.0129,0.0133,0.0124,0.0092,0.0079,-0.0013,-0.0059,-0.0216,-0.0311,-0.0469,-0.0448,-0.0526,-0.0481,-0.0476,-0.0503,-0.0497,-0.0491,-0.0553,-0.0553,-0.0552,-0.0552,0,0.0047,0.0055,0.0081,0.0079,0.0082,0.0108,0.0117,0.0124,0.0129,0.0104,0.0093,0.0023,-0.0069,-0.0189,-0.028,-0.0381,-0.0505,-0.0515,-0.0519,-0.0478,-0.047,-0.0496,-0.0492,-0.0548,-0.0549,-0.0549,-0.0549,0,0.0034,0.0038,0.0035,0.0047,0.0051,0.0078,0.0102,0.0113,0.0122,0.0121,0.012,0.0037,-0.0021,-0.0142,-0.0229,-0.0316,-0.0355,-0.0393,-0.0404,-0.0409,-0.0276,-0.0238,-0.0267,0,0,0,0,0,-0.0,-0.002,-0.0015,0.0003,0.0021,0.004,0.0076,0.0103,0.0138,0.0139,0.0139,0.0075,-0.0045,-0.0099,-0.0178,-0.0239,-0.0391,-0.0336,-0.0444,-0.0527,-0.0532,-0.0388,0,0,0,0,0,0,-0.0047,-0.0059,-0.0036,-0.003,-0.0011,0.0016,0.0061,0.0095,0.0118,0.0139,0.0084,0.0058,-0.0058,0.0002,-0.0178,-0.0207,-0.0285,-0.0394,-0.0395,-0.0525,-0.0529,-0.0532,-0.0386,0,0,0,0,0]}]]